[[{"header":{"parameterUnit":"m.s-1","parameterCategory":1,"la1":30.2991,"la2":30.254,"lo1":-89.0895,"lo2":-89.0444,"dy":0.0017,"dx":0.0017,"nx":28,"ny":28,"refTime":"2024-07-08T03:00:00:Z","depth":0,"parameterNumber":2,"parameterNumberName":"U-component_of_WINDS"},"data":[0,0,0,0,0,0,0,0,0,0,0,0,0,0,0,0,0,0,0,0,0,0,0,0,0,0,0,0,0,0,0,0,0,0,0,0,0,0,0,0,0,0,0,0,0,0,0,0,0,0,0,0,0,0,0,0,0,0,-1.3819,-1.3818,0,-1.3695,-1.3693,-1.3692,-1.3607,-1.3606,-1.3605,-1.3605,-1.3476,-1.3473,-1.347,0,0,0,0,0,0,0,0,0,0,0,0,0,-1.3983,-1.3981,-1.3819,-1.3818,-1.3816,-1.3695,-1.3693,-1.3691,-1.3607,-1.3606,-1.3605,-1.3605,-1.3477,-1.3473,-1.347,0,0,0,0,0,0,0,0,0,0,0,0,0,-1.3891,-1.398,-1.382,-1.3759,-1.3753,-1.3695,-1.3693,-1.3691,-1.3607,-1.3606,-1.3605,-1.3604,-1.3478,-1.3474,-1.347,-1.3462,0,0,-1.3456,-1.3455,0,0,0,0,0,0,0,0,-1.3896,-1.3885,-1.377,-1.3763,-1.3756,-1.3665,-1.3704,-1.3614,-1.3607,-1.3662,-1.3605,-1.3604,-1.354,-1.353,-1.3509,-1.3456,-1.345,-1.3456,-1.3454,-1.3452,-1.345,0,0,0,0,0,0,0,-1.3903,-1.389,-1.377,-1.3768,-1.376,-1.3738,-1.3724,-1.3686,-1.3608,-1.3657,-1.3651,-1.3637,-1.3536,-1.3513,-1.3505,-1.3448,-1.3456,-1.3452,-1.345,-1.3448,-1.3383,-1.3384,0,0,0,0,0,0,-1.3919,-1.3896,-1.3774,-1.3766,-1.3825,-1.3736,-1.372,-1.3695,-1.3608,-1.3594,-1.3638,-1.3634,-1.3521,-1.351,-1.35,-1.3485,-1.3452,-1.3448,-1.3445,-1.3382,-1.3383,-1.3384,0,0,0,0,0,0,-1.3923,-1.3909,-1.3779,-1.3829,-1.3811,-1.3734,-1.3707,-1.3693,-1.3671,-1.3593,-1.3579,-1.363,-1.352,-1.3506,-1.3472,-1.348,-1.3446,-1.3442,-1.3381,-1.3382,-1.3383,-1.3456,0,0,0,0,0,0,-1.3928,-1.3911,-1.3907,-1.383,-1.3809,-1.3753,-1.3707,-1.3692,-1.3664,-1.3657,-1.3582,-1.3568,-1.3518,-1.3479,-1.3468,-1.3473,-1.3439,-1.338,-1.3382,-1.3383,-1.3453,-1.346,-1.3466,0,0,0,0,0,-1.3934,-1.3932,-1.3907,-1.3893,-1.3803,-1.3754,-1.3742,-1.3684,-1.3665,-1.366,-1.3611,-1.3571,-1.3481,-1.3476,-1.3463,-1.3467,-1.3379,-1.3381,-1.3383,-1.345,-1.3458,-1.3466,0,0,0,0,0,0,-1.4012,-1.3921,-1.3892,-1.3866,-1.3818,-1.374,-1.3732,-1.3695,-1.3652,-1.3648,-1.3578,-1.3561,-1.3535,-1.3497,-1.3494,-1.3455,-1.3425,-1.3425,-1.3481,-1.3488,-1.3494,-1.3504,-1.3435,0,0,0,0,0,-1.4026,-1.3994,-1.3916,-1.39,-1.3878,-1.381,-1.3786,-1.3746,-1.3694,-1.3674,-1.3621,-1.3572,-1.3533,-1.3508,-1.3468,-1.3447,-1.3429,-1.3443,-1.345,-1.3456,-1.3456,-1.3442,-1.3448,-1.339,-1.339,-1.339,0,0,-1.4055,-1.4001,-1.3985,-1.3915,-1.3873,-1.3842,-1.3793,-1.3762,-1.3738,-1.3669,-1.3633,-1.3594,-1.3534,-1.3507,-1.3492,-1.3475,-1.3468,-1.3458,-1.3463,-1.346,-1.3445,-1.345,-1.3455,-1.3391,-1.3391,-1.3391,0,0,-1.4091,-1.4048,-1.403,-1.3989,-1.3927,-1.3882,-1.3878,-1.3805,-1.3776,-1.374,-1.3687,-1.3657,-1.3591,-1.3551,-1.3522,-1.3544,-1.3505,-1.3532,-1.3566,-1.3554,-1.3559,-1.3562,-1.357,-1.3574,-1.3533,-1.3533,-1.3533,0,-1.4135,-1.4086,-1.4025,-1.3997,-1.3968,-1.3904,-1.3885,-1.3849,-1.3777,-1.3758,-1.374,-1.3656,-1.3611,-1.3573,-1.3579,-1.3558,-1.3551,-1.3541,-1.3563,-1.3566,-1.3568,-1.3575,-1.3579,-1.3537,-1.3536,-1.3536,-1.3536,0,-1.4143,-1.4109,-1.4102,-1.4035,-1.4004,-1.3981,-1.3917,-1.3894,-1.3856,-1.3813,-1.3777,-1.3721,-1.3669,-1.3657,-1.362,-1.3614,-1.3605,-1.3576,-1.3544,-1.3579,-1.3584,-1.3586,-1.3542,-1.3541,-1.354,-1.3539,0,0,-1.4224,-1.4124,-1.4123,-1.4091,-1.4019,-1.3992,-1.3966,-1.3915,-1.3896,-1.3849,-1.3825,-1.3771,-1.3744,-1.3711,-1.3669,-1.3658,-1.3679,-1.363,-1.3627,-1.3641,-1.367,-1.3692,-1.3696,-1.3653,-1.3654,-1.3654,-1.3675,0,-1.425,-1.42,-1.4145,-1.4114,-1.4083,-1.4022,-1.4,-1.3953,-1.3911,-1.3879,-1.3833,-1.3796,-1.3762,-1.3742,-1.3729,-1.368,-1.3684,-1.3677,-1.3631,-1.363,-1.3647,-1.3699,-1.3722,-1.3745,-1.3676,-1.3677,-1.3677,0,-1.4273,-1.4229,-1.4196,-1.4126,-1.4111,-1.4092,-1.4041,-1.401,-1.3956,-1.3926,-1.389,-1.3846,-1.3815,-1.3788,-1.3744,-1.3741,-1.3719,-1.3692,-1.3691,-1.3684,-1.3655,-1.3694,-1.375,-1.3754,-1.3679,-1.3679,-1.3679,0,-1.4337,-1.4269,-1.424,-1.4215,-1.4134,-1.4121,-1.4087,-1.4031,-1.4004,-1.3959,-1.3941,-1.3894,-1.3867,-1.3831,-1.3775,-1.376,-1.3738,-1.3706,-1.3713,-1.3714,-1.3711,-1.3712,-1.3765,-1.3697,-1.3697,-1.3697,-1.3697,0,-1.4371,-1.4353,-1.4268,-1.425,-1.4228,-1.4165,-1.4145,-1.4104,-1.4056,-1.4029,-1.3974,-1.395,-1.3877,-1.3844,-1.38,-1.3771,-1.376,-1.3735,-1.3724,-1.374,-1.3743,-1.3724,-1.3721,-1.3697,-1.3697,-1.3697,-1.3697,0,-1.4438,-1.438,-1.4345,-1.4271,-1.4251,-1.4239,-1.4175,-1.4155,-1.4111,-1.4078,-1.4067,-1.3997,-1.3956,-1.3897,-1.3837,-1.3807,-1.3785,-1.3766,-1.3804,-1.3797,-1.3808,-1.3808,-1.385,-1.3853,-1.3784,-1.3785,-1.3785,0,-1.4464,-1.4449,-1.4373,-1.4351,-1.4318,-1.4284,-1.4256,-1.4193,-1.4167,-1.4104,-1.4092,-1.4047,-1.4007,-1.3944,-1.3888,-1.3843,-1.3823,-1.3841,-1.3815,-1.3833,-1.3823,-1.3825,-1.3823,-1.3847,-1.3848,-1.3849,-1.385,0,-1.4516,-1.4488,-1.4451,-1.4403,-1.4372,-1.4331,-1.4288,-1.4273,-1.4201,-1.4174,-1.4131,-1.4101,-1.4041,-1.3996,-1.3943,-1.3907,-1.3866,-1.3858,-1.3857,-1.3874,-1.3897,-1.3885,-1.3821,-1.3857,-1.3857,-1.3856,-1.3856,-1.3855,-1.4563,-1.4547,-1.4491,-1.4451,-1.4412,-1.4373,-1.4351,-1.4304,-1.4268,-1.4214,-1.4179,-1.4139,-1.4084,-1.4009,-1.3975,-1.3942,-1.3925,-1.3924,-1.3924,-1.3925,-1.3931,-1.3902,-1.3932,-1.3932,-1.3932,-1.3931,-1.3931,0,-1.4613,-1.4574,-1.4538,-1.4479,-1.4448,-1.4412,-1.4363,-1.4339,-1.4304,-1.4257,-1.4219,-1.4171,-1.4128,-1.4069,-1.4021,-1.4006,-1.3987,-1.3996,-1.3996,-1.3989,-1.3948,-1.3954,-1.4013,-1.4013,-1.4013,-1.4013,-1.4013,-1.4013,-1.4635,-1.4605,-1.4571,-1.4522,-1.4483,-1.4443,-1.4418,-1.4382,-1.4344,-1.4292,-1.4256,-1.4218,-1.4166,-1.4115,-1.4073,-1.4057,-1.4042,-1.4058,-1.4036,-1.3999,-1.3992,-1.3985,-1.3989,-1.4055,-1.4055,-1.4079,-1.4079,-1.4079]},{"header":{"parameterUnit":"m.s-1","parameterCategory":1,"la1":30.2991,"la2":30.254,"lo1":-89.0895,"lo2":-89.0444,"dy":0.0017,"dx":0.0017,"nx":28,"ny":28,"refTime":"2024-07-08T03:00:00:Z","depth":0,"parameterNumber":3,"parameterNumberName":"V-component_of_WINDS"},"data":[0,0,0,0,0,0,0,0,0,0,0,0,0,0,0,0,0,0,0,0,0,0,0,0,0,0,0,0,0,0,0,0,0,0,0,0,0,0,0,0,0,0,0,0,0,0,0,0,0,0,0,0,0,0,0,0,0,0,4.6408,4.6408,0,4.6356,4.6356,4.6355,4.6273,4.6271,4.627,4.6268,4.6215,4.6215,4.6215,0,0,0,0,0,0,0,0,0,0,0,0,0,4.6436,4.6436,4.6408,4.6408,4.6407,4.6357,4.6356,4.6355,4.6273,4.6271,4.6269,4.6267,4.6215,4.6215,4.6215,0,0,0,0,0,0,0,0,0,0,0,0,0,4.6408,4.6436,4.6408,4.636,4.6355,4.6357,4.6356,4.6355,4.6273,4.6271,4.6269,4.6267,4.6215,4.6215,4.6215,4.626,0,0,4.6215,4.6215,0,0,0,0,0,0,0,0,4.641,4.6408,4.6368,4.6363,4.6358,4.6319,4.6346,4.6323,4.6274,4.6304,4.6268,4.6266,4.6251,4.6248,4.6243,4.6257,4.6255,4.6215,4.6215,4.6215,4.6215,0,0,0,0,0,0,0,4.6412,4.6409,4.6388,4.6367,4.6361,4.6341,4.6334,4.6341,4.6291,4.6301,4.6295,4.629,4.6248,4.6243,4.6241,4.6254,4.6215,4.6215,4.6215,4.6215,4.6302,4.6304,0,0,0,0,0,0,4.6421,4.6411,4.6389,4.6386,4.6379,4.6342,4.6335,4.6334,4.6291,4.6282,4.6292,4.6287,4.6245,4.6241,4.6239,4.6288,4.6215,4.6215,4.6214,4.63,4.6302,4.6305,0,0,0,0,0,0,4.6422,4.642,4.6391,4.6397,4.6392,4.6344,4.6343,4.6334,4.6329,4.6284,4.6274,4.6297,4.6243,4.6239,4.6255,4.6285,4.6215,4.6214,4.6297,4.63,4.6304,4.6387,0,0,0,0,0,0,4.6423,4.6421,4.6437,4.6398,4.6392,4.6408,4.6345,4.6334,4.6329,4.6321,4.6285,4.6277,4.6241,4.6256,4.6255,4.6284,4.6214,4.6294,4.6298,4.6303,4.6382,4.6393,4.6403,0,0,0,0,0,4.6425,4.6463,4.6438,4.6436,4.6411,4.641,4.6407,4.6364,4.6332,4.6348,4.6319,4.6279,4.6283,4.6258,4.6257,4.6286,4.6292,4.6297,4.6302,4.6377,4.6391,4.6403,0,0,0,0,0,0,4.6506,4.6457,4.6429,4.6456,4.6438,4.6396,4.6415,4.638,4.6371,4.6364,4.6311,4.6304,4.6326,4.6308,4.6281,4.6327,4.6281,4.6286,4.6338,4.6351,4.6362,4.6365,4.6214,0,0,0,0,0,4.6528,4.6531,4.6487,4.6515,4.6508,4.6464,4.6461,4.643,4.6409,4.6401,4.6373,4.6355,4.6351,4.635,4.6345,4.6379,4.637,4.6399,4.641,4.6419,4.6424,4.644,4.6452,4.6322,4.6322,4.6322,0,0,4.6571,4.6545,4.655,4.6531,4.6513,4.6518,4.6457,4.6465,4.6467,4.6402,4.6415,4.6395,4.637,4.6395,4.6405,4.6381,4.6458,4.6426,4.6433,4.6433,4.6447,4.6459,4.647,4.6326,4.6325,4.6325,0,0,4.6653,4.6633,4.6654,4.6638,4.6612,4.6583,4.6588,4.6552,4.6536,4.6548,4.6499,4.6502,4.6498,4.6483,4.6474,4.6552,4.6514,4.6552,4.6608,4.6624,4.6635,4.6643,4.667,4.6681,4.6557,4.6557,4.6557,0,4.671,4.6715,4.6669,4.6679,4.6673,4.6614,4.6635,4.6622,4.6596,4.6593,4.6566,4.656,4.6539,4.656,4.6579,4.6575,4.6579,4.6555,4.6637,4.6645,4.6653,4.6678,4.6688,4.6562,4.6561,4.6561,4.656,0,4.6786,4.679,4.681,4.6787,4.6782,4.6798,4.6755,4.6756,4.6726,4.67,4.6713,4.6687,4.6675,4.6678,4.6649,4.6695,4.6681,4.6647,4.6598,4.667,4.6693,4.6702,4.6569,4.6567,4.6566,4.6564,0,0,4.6916,4.6868,4.6876,4.6865,4.6833,4.6835,4.6849,4.6838,4.6839,4.6824,4.6834,4.6832,4.6801,4.6791,4.676,4.6775,4.6837,4.6738,4.6737,4.6757,4.6886,4.6911,4.6923,4.6812,4.6814,4.6815,4.6888,0,4.699,4.7009,4.6969,4.6999,4.7002,4.6948,4.6959,4.6941,4.6917,4.6917,4.689,4.689,4.6848,4.6842,4.6855,4.6827,4.6862,4.6821,4.682,4.6821,4.6827,4.6935,4.6961,4.7031,4.6896,4.6898,4.6899,0,4.7078,4.7068,4.7097,4.7064,4.7064,4.7075,4.7062,4.7063,4.7041,4.7023,4.7013,4.6976,4.6987,4.6943,4.6957,4.693,4.6927,4.6914,4.6915,4.6913,4.6863,4.6934,4.7052,4.7062,4.6913,4.6911,4.691,0,4.7169,4.7162,4.7179,4.7171,4.7133,4.7142,4.7127,4.7103,4.71,4.7088,4.7085,4.7076,4.707,4.7064,4.7025,4.6996,4.7044,4.6996,4.7028,4.703,4.704,4.7039,4.7158,4.704,4.704,4.704,4.704,0,4.7255,4.7275,4.7219,4.7229,4.7251,4.7205,4.7227,4.7206,4.7186,4.7192,4.7145,4.7151,4.71,4.7101,4.7071,4.7087,4.7085,4.707,4.7062,4.7073,4.7075,4.707,4.7064,4.7043,4.7042,4.7042,4.7041,0,4.7359,4.7322,4.7337,4.73,4.7292,4.7309,4.7277,4.7285,4.7259,4.7266,4.7266,4.7224,4.7223,4.7184,4.7174,4.7154,4.7182,4.7165,4.7189,4.7183,4.7218,4.7215,4.7336,4.7349,4.7225,4.7226,4.7227,0,4.7415,4.7429,4.7395,4.7395,4.7382,4.7383,4.7379,4.7335,4.7333,4.7311,4.7321,4.7316,4.7309,4.7309,4.7278,4.7271,4.7253,4.7296,4.7251,4.7263,4.7252,4.7251,4.7252,4.7305,4.7306,4.7308,4.7309,0,4.7519,4.7501,4.7497,4.7487,4.7484,4.7474,4.7461,4.7464,4.7416,4.7416,4.7414,4.7409,4.7399,4.7394,4.7381,4.7365,4.7329,4.7323,4.733,4.7342,4.7355,4.7348,4.7214,4.732,4.7319,4.7318,4.7318,4.7317,4.76,4.7611,4.7588,4.7585,4.7571,4.756,4.7566,4.7541,4.7539,4.7527,4.7502,4.7504,4.7483,4.7462,4.7449,4.745,4.7428,4.7438,4.7441,4.7444,4.745,4.7356,4.7448,4.7447,4.7447,4.7447,4.7446,0,4.7701,4.7684,4.7682,4.7666,4.7664,4.7631,4.7616,4.7616,4.7619,4.7602,4.7597,4.7595,4.759,4.756,4.7551,4.7558,4.7541,4.7557,4.7556,4.7553,4.747,4.7465,4.7571,4.7571,4.7571,4.7571,4.7571,4.7571,4.7753,4.7769,4.7748,4.7756,4.7739,4.7741,4.7735,4.7725,4.7711,4.7711,4.7707,4.7688,4.7665,4.7656,4.765,4.7641,4.764,4.7662,4.7647,4.7571,4.7558,4.7547,4.7541,4.7662,4.7662,4.7729,4.773,4.773]}]]